Location: Unspecified
(0.0000°N, 0.0000°E)
Time: 15:55:10
(UTC+00:00)

AD-A Canister/Altair 2 - Pass Details

Date: 02 May 2025
Orbit: 593 x 2295 km, 78.6° (Epoch: 12 May)

Event Time Altitude Azimuth Distance (km) Brightness Sun altitude
Rises 20:27:37 0° 205° (SSW) 5,863 11.6 -36.0°
Reaches altitude 10° 20:31:37 10° 212° (SSW) 4,877 11.2 -37.0°
Maximum altitude 20:43:09 38° 274° (W) 2,983 10.2 -39.7°
Drops below altitude 10° 20:53:10 10° 337° (NNW) 4,184 11.1 -42.0°
Sets 20:56:23 0° 346° (NNW) 4,964 11.5 -42.8°
